Weather reports worldwide

Advertisment
Rimini, Italy (16149): temperature & dewpoint: 17.10.2020 01:00:00 - 23.10.2020 01:00:00 (CEST)Rimini, Italy (16149): wind speed: 17.10.2020 01:00:00 - 23.10.2020 01:00:00 (CEST)Rimini, Italy (16149): wind direction: 17.10.2020 01:00:00 - 23.10.2020 01:00:00 (CEST)Rimini, Italy (16149): reduced air pressure: 17.10.2020 01:00:00 - 23.10.2020 01:00:00 (CEST)Rimini, Italy (16149): visibility: 17.10.2020 01:00:00 - 23.10.2020 01:00:00 (CEST)Rimini, Italy (16149): precipitation: 17.10.2020 01:00:00 - 23.10.2020 01:00:00 (CEST)
Date & Time tt [°C] td [°C] ff [km/h] ff [kn] dd ppp [hPa] vv [km] rr [mm]
23.10.2020 01:00:00 11,0 10,0 4 2 - - 1,9 -
23.10.2020 00:00:00 12,0 11,0 4 2 - - 8 -
22.10.2020 23:00:00 11,9 11,5 4 2 W 1023,4 5 0,0
22.10.2020 22:00:00 13,0 13,0 4 2 SW - 7 -
22.10.2020 21:00:00 14,0 13,0 4 2 S - 10 -
22.10.2020 20:00:00 14,5 13,0 8 4 W 1023,4 10 -
22.10.2020 19:00:00 16,0 13,0 2 1 - - 10 -
22.10.2020 18:00:00 17,0 14,0 9 5 ESE - 10 -
22.10.2020 17:00:00 17,5 14,4 11 6 E 1022,9 10 0,0
22.10.2020 16:00:00 18,0 13,0 13 7 E - 8 -
22.10.2020 15:00:00 18,0 13,0 11 6 E - 7 -
22.10.2020 14:00:00 16,9 12,6 13 7 ENE 1024,1 7 -
22.10.2020 13:00:00 17,0 12,0 11 6 E - 8 -
22.10.2020 12:00:00 16,0 11,0 8 4 ENE - 10 -
22.10.2020 11:00:00 15,3 10,3 8 4 NNE 1025,5 10 0,0
22.10.2020 10:00:00 14,0 11,0 2 1 - - 10 -
22.10.2020 09:00:00 10,0 9,0 9 5 SSW - 10 -
22.10.2020 08:00:00 7,6 7,2 8 4 S 1024,6 10 -
22.10.2020 07:00:00 7,0 7,0 4 2 - - 10 -
22.10.2020 06:00:00 8,0 8,0 5 3 S - 10 -
22.10.2020 05:00:00 8,2 7,2 8 4 WNW 1024,4 10 0,0
22.10.2020 04:00:00 9,0 7,0 5 3 W - 10 -
22.10.2020 03:00:00 9,0 8,0 4 2 - - 10 -
22.10.2020 02:00:00 8,3 7,6 5 3 WSW 1024,3 8 -
22.10.2020 01:00:00 9,0 9,0 9 5 SSW - 3,7 -
22.10.2020 00:00:00 9,0 9,0 5 3 SW - 2,7 -
21.10.2020 23:00:00 9,3 9,0 5 3 SSW 1024,4 1,2 0,0
21.10.2020 22:00:00 10,0 10,0 8 4 SW - 1,4 -
21.10.2020 21:00:00 11,0 10,0 5 3 SW - 1,3 -
21.10.2020 20:00:00 10,4 9,8 4 2 WSW 1024,2 1,5 -
21.10.2020 19:00:00 13,0 12,0 4 2 SSW - 2,5 -
21.10.2020 18:00:00 14,0 13,0 4 2 - - 2,5 -
21.10.2020 17:00:00 14,4 12,1 8 4 ENE 1024,1 4,0 0,0
21.10.2020 16:00:00 14,0 12,0 8 4 ENE - 4,0 -
21.10.2020 15:00:00 14,0 12,0 9 5 NE - 3,0 -
21.10.2020 14:00:00 14,2 12,3 13 7 NNE 1024,7 2,5 -
21.10.2020 13:00:00 15,0 11,0 13 7 NNE - 8 -
21.10.2020 12:00:00 15,0 11,0 8 4 NNE - 10 -
21.10.2020 11:00:00 14,6 10,4 5 3 NNW 1025,2 7 0,0
21.10.2020 10:00:00 13,0 10,0 5 3 WNW - 10 -
21.10.2020 09:00:00 9,0 8,0 4 2 - - 10 -
21.10.2020 08:00:00 6,1 5,8 4 2 - 1024,1 10 -
21.10.2020 07:00:00 7,0 7,0 4 2 - - 10 -
21.10.2020 06:00:00 7,0 7,0 4 2 - - 10 -
21.10.2020 05:00:00 6,7 6,4 4 2 - 1023,7 10 0,0
21.10.2020 04:00:00 7,0 7,0 2 1 - - 10 -
21.10.2020 03:00:00 8,0 8,0 2 1 - - 3,8 -
21.10.2020 02:00:00 7,8 7,5 5 3 W 1024,3 6 -
21.10.2020 01:00:00 10,0 9,0 2 1 - - 4,0 -
21.10.2020 00:00:00 10,0 9,0 4 2 - - 3,5 -
20.10.2020 23:00:00 10,7 10,5 8 4 SSE 1024,5 2,2 0,0
20.10.2020 22:00:00 11,0 11,0 2 1 S - 2,5 -
20.10.2020 21:00:00 11,0 11,0 4 2 SSE - 2,0 -
20.10.2020 20:00:00 12,0 11,4 4 2 S 1025,3 10 -
20.10.2020 19:00:00 14,0 12,0 2 1 WSW - 10 -
20.10.2020 18:00:00 16,0 12,0 2 1 - - 10 -
20.10.2020 17:00:00 15,8 12,3 4 2 - 1024,9 10 0,0
20.10.2020 16:00:00 15,0 12,0 5 3 NE - 10 -
20.10.2020 15:00:00 15,0 12,0 8 4 NE - 10 -
20.10.2020 14:00:00 15,3 11,5 9 5 NE 1025,5 10 -
20.10.2020 13:00:00 15,0 11,0 9 5 ENE - 10 -
20.10.2020 12:00:00 15,0 11,0 8 4 NE - 10 -
20.10.2020 11:00:00 14,5 10,6 4 2 - 1026,0 10 0,0
20.10.2020 10:00:00 12,0 11,0 2 1 - - 10 -
20.10.2020 09:00:00 9,0 9,0 5 3 WSW - 10 -
20.10.2020 08:00:00 7,1 6,9 4 2 SW 1025,1 6 -
20.10.2020 07:00:00 7,0 7,0 5 3 SSW - 5 -
20.10.2020 06:00:00 8,0 8,0 4 2 WSW - 7 -
20.10.2020 05:00:00 8,2 7,9 2 1 SW 1024,3 6 0,0
20.10.2020 04:00:00 9,0 8,0 4 2 - - 6 -
20.10.2020 03:00:00 9,0 9,0 5 3 SW - 7 -
20.10.2020 02:00:00 9,7 9,5 5 3 SSW 1025,0 5 -
20.10.2020 01:00:00 10,0 10,0 4 2 SSW - 2,4 -
20.10.2020 00:00:00 11,0 11,0 8 4 SW - 4,8 -
19.10.2020 23:00:00 11,5 11,1 4 2 SW 1024,6 2,4 0,0
19.10.2020 22:00:00 13,0 12,0 2 1 W - 9 -
19.10.2020 21:00:00 14,0 13,0 4 2 SW - 10 -
19.10.2020 20:00:00 14,3 12,5 2 1 - 1024,3 10 -
19.10.2020 19:00:00 15,0 12,0 4 2 WSW - 10 -
19.10.2020 18:00:00 15,0 12,0 4 2 - - 10 -
19.10.2020 17:00:00 15,6 12,2 8 4 ENE 1023,7 10 0,0
19.10.2020 16:00:00 16,0 12,0 8 4 ENE - 10 -
19.10.2020 15:00:00 16,0 12,0 9 5 ENE - 10 -
19.10.2020 14:00:00 15,7 12,3 9 5 NNE 1024,5 10 -
19.10.2020 13:00:00 15,0 12,0 11 6 NE - 10 -
19.10.2020 12:00:00 15,0 11,0 9 5 ENE - 10 -
19.10.2020 11:00:00 14,8 11,3 5 3 ENE 1025,0 10 0,0
19.10.2020 10:00:00 12,0 11,0 4 2 - - 10 -
19.10.2020 09:00:00 9,0 9,0 4 2 WSW - 8 -
19.10.2020 08:00:00 7,4 7,0 4 2 WSW 1023,8 10 -
19.10.2020 07:00:00 7,0 7,0 4 2 WSW - 10 -
19.10.2020 06:00:00 8,0 7,0 4 2 SSW - 10 -
19.10.2020 05:00:00 7,7 7,3 8 4 SSW 1023,2 10 0,0
19.10.2020 04:00:00 7,0 7,0 4 2 - - 9 -
19.10.2020 03:00:00 8,0 7,0 5 3 SSW - 10 -
19.10.2020 02:00:00 7,9 7,3 2 1 - 1023,2 10 -
19.10.2020 01:00:00 9,0 8,0 4 2 SSW - 10 -
19.10.2020 00:00:00 9,0 8,0 5 3 SSW - 10 -
18.10.2020 23:00:00 9,7 9,0 8 4 SSW 1022,7 10 0,0
18.10.2020 22:00:00 11,0 10,0 5 3 S - 10 -
18.10.2020 21:00:00 11,0 10,0 5 3 SSW - 9 -
18.10.2020 20:00:00 11,7 11,0 5 3 SW 1021,7 6 -
18.10.2020 19:00:00 13,0 12,0 2 1 SE - 7 -
18.10.2020 18:00:00 16,0 12,0 4 2 - - 10 -
18.10.2020 17:00:00 16,2 12,3 5 3 ENE 1020,6 10 0,0
18.10.2020 16:00:00 16,0 12,0 11 6 NNE - 10 -
18.10.2020 15:00:00 17,0 13,0 15 8 NNE - 10 -
18.10.2020 14:00:00 16,3 11,9 13 7 NNE 1020,8 10 -
18.10.2020 13:00:00 17,0 11,0 11 6 N - 10 -
18.10.2020 12:00:00 16,0 10,0 9 5 WNW - 10 -
18.10.2020 11:00:00 15,3 9,1 8 4 W 1020,7 10 0,0
18.10.2020 10:00:00 13,0 9,0 2 1 - - 10 -
18.10.2020 09:00:00 9,0 8,0 2 1 - - 10 -
18.10.2020 08:00:00 7,2 6,5 8 4 SSW 1019,1 10 -
18.10.2020 07:00:00 7,0 6,0 8 4 SW - 10 -
18.10.2020 06:00:00 7,0 6,0 8 4 WSW - 10 -
18.10.2020 05:00:00 7,5 6,6 5 3 SSW 1018,2 10 0,0
18.10.2020 04:00:00 8,0 7,0 5 3 SSW - 10 -
18.10.2020 03:00:00 8,0 7,0 2 1 - - 10 -
18.10.2020 02:00:00 7,7 6,9 4 2 - 1017,8 10 -
18.10.2020 01:00:00 9,0 8,0 4 2 SSW - 10 -
18.10.2020 00:00:00 9,0 8,0 5 3 WSW - 10 -
17.10.2020 23:00:00 9,5 8,7 4 2 - 1017,3 10 0,0
17.10.2020 22:00:00 10,0 9,0 4 2 SSE - 10 -
17.10.2020 21:00:00 12,0 10,0 4 2 SSE - 10 -
17.10.2020 20:00:00 13,4 9,7 5 3 SE 1016,5 10 -
17.10.2020 19:00:00 14,0 10,0 8 4 SE - 10 -
17.10.2020 18:00:00 16,0 10,0 13 7 ESE - 10 -
17.10.2020 17:00:00 16,4 9,9 16 9 E 1015,0 10 0,0
17.10.2020 16:00:00 17,0 10,0 16 9 E - 10 -
17.10.2020 15:00:00 17,0 9,0 16 9 E - 10 -
17.10.2020 14:00:00 16,5 10,1 15 8 E 1015,2 10 -
17.10.2020 13:00:00 16,0 10,0 13 7 ENE - 10 -
17.10.2020 12:00:00 16,0 10,0 11 6 ENE - 10 -
17.10.2020 11:00:00 16,3 8,9 8 4 SSW 1015,4 10 0,0
17.10.2020 10:00:00 13,0 9,0 9 5 SSW - 10 -
17.10.2020 09:00:00 10,0 8,0 8 4 SSW - 10 -
17.10.2020 08:00:00 7,4 6,5 5 3 SW 1014,5 10 -
17.10.2020 07:00:00 7,0 6,0 4 2 SW - 10 -
17.10.2020 06:00:00 7,0 6,0 5 3 SSW - 10 -
17.10.2020 05:00:00 7,7 6,7 4 2 - 1014,1 10 0,0
17.10.2020 04:00:00 8,0 7,0 4 2 - - 10 -
17.10.2020 03:00:00 8,0 7,0 4 2 SW - 10 -
17.10.2020 02:00:00 8,2 7,2 4 2 SSW 1014,2 10 -
17.10.2020 01:00:00 9,0 8,0 9 5 SW - 10 -

tt = temperature
td = dewpoint
ff = wind speed
dd = wind direction
ppp = reduced air pressure
vv = visibility
rr = precipitation

Next stations